Time,TemperatureF,DewpointF,PressureIn,WindDirection,WindDirectionDegrees,WindSpeedMPH,WindSpeedGustMPH,Humidity,HourlyPrecipIn,Conditions,Clouds,dailyrainin,SoftwareType,DateUTC
2013-04-22 00:01:00,50.8,36.5,30.33,SSW,193,1.0,1.0,58,0.00,,,0.00,Wunderground v.1.15,2013-04-22 04:01:00,
2013-04-22 00:03:00,50.8,36.5,30.33,SSW,193,1.0,1.0,58,0.00,,,0.00,Wunderground v.1.15,2013-04-22 04:03:00,
2013-04-22 00:04:00,50.8,36.5,30.33,WSW,253,1.0,1.0,58,0.00,,,0.00,Wunderground v.1.15,2013-04-22 04:04:00,
2013-04-22 00:07:00,50.7,36.5,30.33,SSW,207,1.0,1.0,58,0.00,,,0.00,Wunderground v.1.15,2013-04-22 04:07:00,
2013-04-22 00:10:00,50.7,36.9,30.33,SSW,200,1.0,1.0,59,0.00,,,0.00,Wunderground v.1.15,2013-04-22 04:10:00,
2013-04-22 00:15:00,50.5,36.7,30.32,SW,226,2.0,2.0,59,0.00,,,0.00,Wunderground v.1.15,2013-04-22 04:15:00,
2013-04-22 00:20:00,50.5,36.7,30.32,NW,317,1.0,1.0,59,0.00,,,0.00,Wunderground v.1.15,2013-04-22 04:20:00,
2013-04-22 00:26:00,50.4,36.6,30.32,SSW,213,1.0,4.0,59,0.00,,,0.00,Wunderground v.1.15,2013-04-22 04:26:00,
2013-04-22 00:31:00,50.4,37.0,30.32,NW,320,2.0,2.0,60,0.00,,,0.00,Wunderground v.1.15,2013-04-22 04:31:00,
2013-04-22 00:36:00,50.1,36.3,30.32,WSW,254,2.0,4.0,59,0.00,,,0.00,Wunderground v.1.15,2013-04-22 04:36:00,
2013-04-22 00:42:00,50.1,36.7,30.32,South,169,2.0,2.0,60,0.00,,,0.00,Wunderground v.1.15,2013-04-22 04:42:00,
2013-04-22 00:51:00,50.1,36.7,30.32,SW,230,2.0,2.0,60,0.00,,,0.00,Wunderground v.1.15,2013-04-22 04:51:00,
2013-04-22 00:56:00,50.0,36.7,30.32,WSW,256,2.0,3.0,60,0.00,,,0.00,Wunderground v.1.15,2013-04-22 04:56:00,
2013-04-22 01:01:00,49.9,36.6,30.31,SW,223,1.0,1.0,60,0.00,,,0.00,Wunderground v.1.15,2013-04-22 05:01:00,
2013-04-22 01:06:00,49.8,36.5,30.31,SSE,167,2.0,4.0,60,0.00,,,0.00,Wunderground v.1.15,2013-04-22 05:06:00,
2013-04-22 01:12:00,49.8,36.5,30.31,SW,236,2.0,2.0,60,0.00,,,0.00,Wunderground v.1.15,2013-04-22 05:12:00,
2013-04-22 01:17:00,49.7,36.4,30.31,SW,225,2.0,3.0,60,0.00,,,0.00,Wunderground v.1.15,2013-04-22 05:17:00,
2013-04-22 01:23:00,49.6,36.7,30.31,SSW,211,2.0,4.0,61,0.00,,,0.00,Wunderground v.1.15,2013-04-22 05:23:00,
2013-04-22 01:28:00,49.6,36.7,30.31,South,181,2.0,4.0,61,0.00,,,0.00,Wunderground v.1.15,2013-04-22 05:28:00,
2013-04-22 01:33:00,49.5,36.6,30.31,SW,232,2.0,2.0,61,0.00,,,0.00,Wunderground v.1.15,2013-04-22 05:33:00,
2013-04-22 01:39:00,49.3,36.4,30.31,South,189,2.0,3.0,61,0.00,,,0.00,Wunderground v.1.15,2013-04-22 05:39:00,
2013-04-22 01:45:00,49.2,36.3,30.31,SW,227,2.0,3.0,61,0.00,,,0.00,Wunderground v.1.15,2013-04-22 05:45:00,
2013-04-22 01:50:00,49.2,36.3,30.31,SW,219,2.0,2.0,61,0.00,,,0.00,Wunderground v.1.15,2013-04-22 05:50:00,
2013-04-22 01:56:00,49.1,36.2,30.30,WSW,244,2.0,3.0,61,0.00,,,0.00,Wunderground v.1.15,2013-04-22 05:56:00,
2013-04-22 02:01:00,49.0,36.5,30.30,SSW,200,2.0,3.0,62,0.00,,,0.00,Wunderground v.1.15,2013-04-22 06:01:00,
2013-04-22 02:06:00,48.9,36.4,30.30,SE,126,2.0,3.0,62,0.00,,,0.00,Wunderground v.1.15,2013-04-22 06:06:00,
2013-04-22 02:12:00,48.8,36.4,30.30,SW,229,2.0,4.0,62,0.00,,,0.00,Wunderground v.1.15,2013-04-22 06:12:00,
2013-04-22 02:18:00,48.7,36.3,30.30,West,275,2.0,4.0,62,0.00,,,0.00,Wunderground v.1.15,2013-04-22 06:18:00,
2013-04-22 02:24:00,48.7,36.3,30.29,SSW,204,2.0,3.0,62,0.00,,,0.00,Wunderground v.1.15,2013-04-22 06:24:00,
2013-04-22 02:30:00,48.6,36.6,30.29,SSE,165,2.0,2.0,63,0.00,,,0.00,Wunderground v.1.15,2013-04-22 06:30:00,
2013-04-22 02:36:00,48.4,36.4,30.29,SSE,149,2.0,3.0,63,0.00,,,0.00,Wunderground v.1.15,2013-04-22 06:36:00,
2013-04-22 02:41:00,48.3,36.3,30.29,SSW,205,2.0,5.0,63,0.00,,,0.00,Wunderground v.1.15,2013-04-22 06:41:00,
2013-04-22 02:50:00,48.1,36.1,30.29,WSW,247,2.0,2.0,63,0.00,,,0.00,Wunderground v.1.15,2013-04-22 06:50:00,
2013-04-22 02:56:00,48.0,36.4,30.28,WSW,246,2.0,5.0,64,0.00,,,0.00,Wunderground v.1.15,2013-04-22 06:56:00,
2013-04-22 03:01:00,47.9,36.3,30.28,WNW,292,3.0,3.0,64,0.00,,,0.00,Wunderground v.1.15,2013-04-22 07:01:00,
2013-04-22 03:07:00,47.8,36.2,30.28,WSW,241,2.0,4.0,64,0.00,,,0.00,Wunderground v.1.15,2013-04-22 07:07:00,
2013-04-22 03:12:00,47.7,36.1,30.28,SE,132,2.0,2.0,64,0.00,,,0.00,Wunderground v.1.15,2013-04-22 07:12:00,
2013-04-22 03:18:00,47.6,36.4,30.28,SW,215,2.0,5.0,65,0.00,,,0.00,Wunderground v.1.15,2013-04-22 07:18:00,
2013-04-22 03:24:00,47.4,36.2,30.28,SSE,153,3.0,5.0,65,0.00,,,0.00,Wunderground v.1.15,2013-04-22 07:24:00,
2013-04-22 03:29:00,47.3,36.5,30.27,SSW,206,3.0,6.0,66,0.00,,,0.00,Wunderground v.1.15,2013-04-22 07:29:00,
2013-04-22 03:35:00,47.2,36.4,30.27,WSW,244,3.0,8.0,66,0.00,,,0.00,Wunderground v.1.15,2013-04-22 07:35:00,
2013-04-22 03:41:00,47.0,36.6,30.28,ESE,113,3.0,7.0,67,0.00,,,0.00,Wunderground v.1.15,2013-04-22 07:41:00,
2013-04-22 03:50:00,46.8,36.4,30.27,West,281,3.0,3.0,67,0.00,,,0.00,Wunderground v.1.15,2013-04-22 07:50:00,
2013-04-22 03:56:00,46.7,36.7,30.27,South,173,3.0,9.0,68,0.00,,,0.00,Wunderground v.1.15,2013-04-22 07:56:00,
2013-04-22 04:01:00,46.6,36.6,30.28,SE,129,3.0,3.0,68,0.00,,,0.00,Wunderground v.1.15,2013-04-22 08:01:00,
2013-04-22 04:06:00,46.5,36.5,30.27,ENE,69,3.0,4.0,68,0.00,,,0.00,Wunderground v.1.15,2013-04-22 08:06:00,
2013-04-22 04:12:00,46.3,36.7,30.27,SSW,209,3.0,4.0,69,0.00,,,0.00,Wunderground v.1.15,2013-04-22 08:12:00,
2013-04-22 04:17:00,46.2,36.6,30.27,SSW,212,2.0,4.0,69,0.00,,,0.00,Wunderground v.1.15,2013-04-22 08:17:00,
2013-04-22 04:23:00,46.0,36.4,30.27,West,271,2.0,3.0,69,0.00,,,0.00,Wunderground v.1.15,2013-04-22 08:23:00,
2013-04-22 04:29:00,45.9,36.7,30.27,South,171,2.0,3.0,70,0.00,,,0.00,Wunderground v.1.15,2013-04-22 08:29:00,
2013-04-22 04:35:00,45.8,36.6,30.27,South,180,2.0,4.0,70,0.00,,,0.00,Wunderground v.1.15,2013-04-22 08:35:00,
2013-04-22 04:40:00,45.7,36.5,30.27,South,171,2.0,2.0,70,0.00,,,0.00,Wunderground v.1.15,2013-04-22 08:40:00,
2013-04-22 04:45:00,45.5,36.6,30.27,SW,219,2.0,4.0,71,0.00,,,0.00,Wunderground v.1.15,2013-04-22 08:45:00,
2013-04-22 04:50:00,45.3,36.4,30.27,SW,216,2.0,2.0,71,0.00,,,0.00,Wunderground v.1.15,2013-04-22 08:50:00,
2013-04-22 04:56:00,45.2,36.7,30.27,WSW,248,1.0,9.0,72,0.00,,,0.00,Wunderground v.1.15,2013-04-22 08:56:00,
2013-04-22 05:01:00,45.1,36.6,30.27,WSW,238,1.0,1.0,72,0.00,,,0.00,Wunderground v.1.15,2013-04-22 09:01:00,
2013-04-22 05:06:00,45.0,36.5,30.28,SSW,206,1.0,3.0,72,0.00,,,0.00,Wunderground v.1.15,2013-04-22 09:06:00,
2013-04-22 05:12:00,45.0,36.5,30.28,SSE,168,2.0,2.0,72,0.00,,,0.00,Wunderground v.1.15,2013-04-22 09:12:00,
2013-04-22 05:18:00,44.9,36.4,30.28,SSW,199,1.0,4.0,72,0.00,,,0.00,Wunderground v.1.15,2013-04-22 09:18:00,
2013-04-22 05:24:00,44.8,36.7,30.28,WSW,242,1.0,2.0,73,0.00,,,0.00,Wunderground v.1.15,2013-04-22 09:24:00,
2013-04-22 05:30:00,44.7,36.6,30.28,SW,221,1.0,1.0,73,0.00,,,0.00,Wunderground v.1.15,2013-04-22 09:30:00,
2013-04-22 05:35:00,44.6,36.5,30.28,SSW,213,1.0,3.0,73,0.00,,,0.00,Wunderground v.1.15,2013-04-22 09:35:00,
2013-04-22 05:41:00,44.5,36.7,30.28,SSW,200,2.0,3.0,74,0.00,,,0.00,Wunderground v.1.15,2013-04-22 09:41:00,
2013-04-22 05:50:00,44.4,36.3,30.28,SSW,196,1.0,1.0,73,0.00,,,0.00,Wunderground v.1.15,2013-04-22 09:50:00,
2013-04-22 05:56:00,44.4,36.6,30.28,West,264,2.0,3.0,74,0.00,,,0.00,Wunderground v.1.15,2013-04-22 09:56:00,
2013-04-22 06:01:00,44.3,36.5,30.29,SSW,211,2.0,4.0,74,0.00,,,0.00,Wunderground v.1.15,2013-04-22 10:01:00,
2013-04-22 06:06:00,44.3,36.5,30.29,South,180,1.0,4.0,74,0.00,,,0.00,Wunderground v.1.15,2013-04-22 10:06:00,
2013-04-22 06:12:00,44.2,36.4,30.29,SW,222,1.0,2.0,74,0.00,,,0.00,Wunderground v.1.15,2013-04-22 10:12:00,
2013-04-22 06:17:00,44.2,36.4,30.30,North,5,1.0,2.0,74,0.00,,,0.00,Wunderground v.1.15,2013-04-22 10:17:00,
2013-04-22 06:23:00,44.1,36.3,30.30,West,273,1.0,3.0,74,0.00,,,0.00,Wunderground v.1.15,2013-04-22 10:23:00,
2013-04-22 06:28:00,43.9,36.5,30.31,West,272,1.0,3.0,75,0.00,,,0.00,Wunderground v.1.15,2013-04-22 10:28:00,
2013-04-22 06:34:00,43.8,36.4,30.32,WSW,258,0.0,1.0,75,0.00,,,0.00,Wunderground v.1.15,2013-04-22 10:34:00,
2013-04-22 06:40:00,43.6,36.2,30.32,WSW,258,0.0,2.0,75,0.00,,,0.00,Wunderground v.1.15,2013-04-22 10:40:00,
2013-04-22 06:50:00,43.4,36.3,30.32,SSW,202,1.0,1.0,76,0.00,,,0.00,Wunderground v.1.15,2013-04-22 10:50:00,
2013-04-22 06:56:00,43.3,36.6,30.32,West,271,1.0,4.0,77,0.00,,,0.00,Wunderground v.1.15,2013-04-22 10:56:00,
2013-04-22 07:02:00,42.9,36.5,30.32,WSW,238,0.0,1.0,78,0.00,,,0.00,Wunderground v.1.15,2013-04-22 11:02:00,
2013-04-22 07:08:00,42.6,35.9,30.32,West,262,1.0,2.0,77,0.00,,,0.00,Wunderground v.1.15,2013-04-22 11:08:00,
2013-04-22 07:13:00,42.4,36.0,30.32,SSW,208,1.0,3.0,78,0.00,,,0.00,Wunderground v.1.15,2013-04-22 11:13:00,
2013-04-22 07:18:00,42.3,36.3,30.32,WSW,246,1.0,3.0,79,0.00,,,0.00,Wunderground v.1.15,2013-04-22 11:18:00,
2013-04-22 07:24:00,42.5,35.8,30.32,WNW,288,1.0,6.0,77,0.00,,,0.00,Wunderground v.1.15,2013-04-22 11:24:00,
2013-04-22 07:30:00,42.8,36.1,30.32,WSW,254,1.0,1.0,77,0.00,,,0.00,Wunderground v.1.15,2013-04-22 11:30:00,
2013-04-22 07:36:00,43.2,36.1,30.32,West,271,1.0,4.0,76,0.00,,,0.00,Wunderground v.1.15,2013-04-22 11:36:00,
2013-04-22 07:42:00,43.7,36.6,30.32,NNW,327,1.0,1.0,76,0.00,,,0.00,Wunderground v.1.15,2013-04-22 11:42:00,
2013-04-22 07:50:00,43.6,35.9,30.32,WSW,248,1.0,1.0,74,0.00,,,0.00,Wunderground v.1.15,2013-04-22 11:50:00,
2013-04-22 07:56:00,44.0,36.6,30.32,WSW,248,1.0,4.0,75,0.00,,,0.00,Wunderground v.1.15,2013-04-22 11:56:00,
2013-04-22 08:02:00,44.3,36.9,30.32,West,275,0.0,0.0,75,0.00,,,0.00,Wunderground v.1.15,2013-04-22 12:02:00,
2013-04-22 08:08:00,44.5,36.4,30.32,SW,223,1.0,2.0,73,0.00,,,0.00,Wunderground v.1.15,2013-04-22 12:08:00,
2013-04-22 08:14:00,44.8,36.0,30.32,SSW,194,1.0,3.0,71,0.00,,,0.00,Wunderground v.1.15,2013-04-22 12:14:00,
2013-04-22 08:19:00,45.3,36.1,30.32,SSW,209,1.0,3.0,70,0.00,,,0.00,Wunderground v.1.15,2013-04-22 12:19:00,
2013-04-22 08:25:00,45.9,35.9,30.32,SW,230,1.0,3.0,68,0.00,,,0.00,Wunderground v.1.15,2013-04-22 12:25:00,
2013-04-22 08:30:00,46.2,36.2,30.32,SSE,167,1.0,1.0,68,0.00,,,0.00,Wunderground v.1.15,2013-04-22 12:30:00,
2013-04-22 08:36:00,46.6,36.2,30.33,SSE,162,1.0,5.0,67,0.00,,,0.00,Wunderground v.1.15,2013-04-22 12:36:00,
2013-04-22 08:42:00,46.9,36.1,30.33,WSW,255,2.0,3.0,66,0.00,,,0.00,Wunderground v.1.15,2013-04-22 12:42:00,
2013-04-22 08:50:00,47.1,35.9,30.33,SW,232,1.0,4.0,65,0.00,,,0.00,Wunderground v.1.15,2013-04-22 12:50:00,
2013-04-22 08:56:00,47.4,36.2,30.33,South,175,2.0,6.0,65,0.00,,,0.00,Wunderground v.1.15,2013-04-22 12:56:00,
2013-04-22 09:02:00,47.6,36.0,30.33,South,180,2.0,3.0,64,0.00,,,0.00,Wunderground v.1.15,2013-04-22 13:02:00,
2013-04-22 09:08:00,47.8,36.2,30.33,South,185,3.0,3.0,64,0.00,,,0.00,Wunderground v.1.15,2013-04-22 13:08:00,
2013-04-22 09:13:00,47.9,36.3,30.32,SSW,205,3.0,5.0,64,0.00,,,0.00,Wunderground v.1.15,2013-04-22 13:13:00,
2013-04-22 09:18:00,48.1,36.5,30.32,South,179,2.0,5.0,64,0.00,,,0.00,Wunderground v.1.15,2013-04-22 13:18:00,
2013-04-22 09:24:00,48.5,36.9,30.32,East,101,2.0,5.0,64,0.00,,,0.00,Wunderground v.1.15,2013-04-22 13:24:00,
2013-04-22 09:29:00,48.7,36.3,30.32,WNW,300,2.0,5.0,62,0.00,,,0.00,Wunderground v.1.15,2013-04-22 13:29:00,
2013-04-22 09:35:00,48.9,36.4,30.32,SSE,156,2.0,4.0,62,0.00,,,0.00,Wunderground v.1.15,2013-04-22 13:35:00,
2013-04-22 09:40:00,49.2,36.7,30.32,SSE,155,2.0,2.0,62,0.00,,,0.00,Wunderground v.1.15,2013-04-22 13:40:00,
2013-04-22 09:50:00,49.4,36.1,30.31,SSW,201,3.0,3.0,60,0.00,,,0.00,Wunderground v.1.15,2013-04-22 13:50:00,
2013-04-22 09:56:00,49.7,36.4,30.31,SSE,167,3.0,4.0,60,0.00,,,0.00,Wunderground v.1.15,2013-04-22 13:56:00,
2013-04-22 10:01:00,49.9,36.6,30.31,SSE,155,3.0,5.0,60,0.00,,,0.00,Wunderground v.1.15,2013-04-22 14:01:00,
2013-04-22 10:06:00,50.2,36.8,30.31,SSE,153,3.0,5.0,60,0.00,,,0.00,Wunderground v.1.15,2013-04-22 14:06:00,
2013-04-22 10:12:00,50.7,36.9,30.31,SE,133,2.0,2.0,59,0.00,,,0.00,Wunderground v.1.15,2013-04-22 14:12:00,
2013-04-22 10:18:00,50.7,36.5,30.30,ESE,105,2.0,4.0,58,0.00,,,0.00,Wunderground v.1.15,2013-04-22 14:18:00,
2013-04-22 10:24:00,51.0,36.3,30.30,WSW,246,2.0,3.0,57,0.00,,,0.00,Wunderground v.1.15,2013-04-22 14:24:00,
2013-04-22 10:29:00,51.4,36.7,30.30,NE,55,1.0,3.0,57,0.00,,,0.00,Wunderground v.1.15,2013-04-22 14:29:00,
2013-04-22 10:35:00,51.9,37.1,30.30,East,101,1.0,2.0,57,0.00,,,0.00,Wunderground v.1.15,2013-04-22 14:35:00,
2013-04-22 10:41:00,52.3,37.5,30.30,NNE,30,1.0,3.0,57,0.00,,,0.00,Wunderground v.1.15,2013-04-22 14:41:00,
2013-04-22 10:50:00,52.3,37.1,30.29,ESE,106,2.0,2.0,56,0.00,,,0.00,Wunderground v.1.15,2013-04-22 14:50:00,
2013-04-22 10:56:00,52.2,37.0,30.29,ENE,63,2.0,7.0,56,0.00,,,0.00,Wunderground v.1.15,2013-04-22 14:56:00,
2013-04-22 11:01:00,52.6,38.2,30.29,SSE,153,3.0,5.0,58,0.00,,,0.00,Wunderground v.1.15,2013-04-22 15:01:00,
2013-04-22 11:07:00,52.8,37.5,30.29,SSE,156,2.0,5.0,56,0.00,,,0.00,Wunderground v.1.15,2013-04-22 15:07:00,
2013-04-22 11:13:00,52.8,37.5,30.28,SE,139,1.0,3.0,56,0.00,,,0.00,Wunderground v.1.15,2013-04-22 15:13:00,
2013-04-22 11:19:00,53.4,37.6,30.28,NE,41,1.0,5.0,55,0.00,,,0.00,Wunderground v.1.15,2013-04-22 15:19:00,
2013-04-22 11:25:00,54.5,37.7,30.28,SW,219,2.0,4.0,53,0.00,,,0.00,Wunderground v.1.15,2013-04-22 15:25:00,
2013-04-22 11:31:00,54.8,38.0,30.28,ENE,59,2.0,2.0,53,0.00,,,0.00,Wunderground v.1.15,2013-04-22 15:31:00,
2013-04-22 11:36:00,55.0,38.2,30.28,WNW,302,2.0,4.0,53,0.00,,,0.00,Wunderground v.1.15,2013-04-22 15:36:00,
2013-04-22 11:41:00,55.6,39.2,30.27,WSW,254,2.0,2.0,54,0.00,,,0.00,Wunderground v.1.15,2013-04-22 15:41:00,
2013-04-22 11:50:00,55.6,38.2,30.27,SSW,205,2.0,3.0,52,0.00,,,0.00,Wunderground v.1.15,2013-04-22 15:50:00,
2013-04-22 11:56:00,55.8,38.4,30.27,ENE,59,2.0,6.0,52,0.00,,,0.00,Wunderground v.1.15,2013-04-22 15:56:00,
2013-04-22 12:01:00,55.8,38.4,30.27,ESE,115,2.0,3.0,52,0.00,,,0.00,Wunderground v.1.15,2013-04-22 16:01:00,
2013-04-22 12:07:00,56.1,38.7,30.27,West,266,2.0,3.0,52,0.00,,,0.00,Wunderground v.1.15,2013-04-22 16:07:00,
2013-04-22 12:12:00,56.9,38.9,30.27,SSE,166,1.0,4.0,51,0.00,,,0.00,Wunderground v.1.15,2013-04-22 16:12:00,
2013-04-22 12:18:00,57.3,38.8,30.26,ESE,121,1.0,4.0,50,0.00,,,0.00,Wunderground v.1.15,2013-04-22 16:18:00,
2013-04-22 12:24:00,57.8,39.3,30.25,ENE,70,1.0,3.0,50,0.00,,,0.00,Wunderground v.1.15,2013-04-22 16:24:00,
2013-04-22 12:30:00,58.1,39.0,30.25,SE,133,2.0,2.0,49,0.00,,,0.00,Wunderground v.1.15,2013-04-22 16:30:00,
2013-04-22 12:36:00,58.2,38.6,30.25,SE,126,2.0,2.0,48,0.00,,,0.00,Wunderground v.1.15,2013-04-22 16:36:00,
2013-04-22 12:41:00,58.3,38.7,30.25,SE,143,1.0,3.0,48,0.00,,,0.00,Wunderground v.1.15,2013-04-22 16:41:00,
2013-04-22 12:50:00,59.1,39.4,30.24,East,99,1.0,2.0,48,0.00,,,0.00,Wunderground v.1.15,2013-04-22 16:50:00,
2013-04-22 12:56:00,59.6,39.3,30.24,WSW,240,1.0,7.0,47,0.00,,,0.00,Wunderground v.1.15,2013-04-22 16:56:00,
2013-04-22 13:01:00,59.8,39.0,30.23,ENE,57,2.0,5.0,46,0.00,,,0.00,Wunderground v.1.15,2013-04-22 17:01:00,
2013-04-22 13:07:00,59.9,39.1,30.23,SSE,155,2.0,5.0,46,0.00,,,0.00,Wunderground v.1.15,2013-04-22 17:07:00,
2013-04-22 13:13:00,59.9,39.1,30.22,East,89,2.0,5.0,46,0.00,,,0.00,Wunderground v.1.15,2013-04-22 17:13:00,
2013-04-22 13:19:00,60.1,39.8,30.22,South,183,2.0,5.0,47,0.00,,,0.00,Wunderground v.1.15,2013-04-22 17:19:00,
2013-04-22 13:25:00,60.7,39.2,30.21,ENE,68,2.0,3.0,45,0.00,,,0.00,Wunderground v.1.15,2013-04-22 17:25:00,
2013-04-22 13:31:00,60.7,39.2,30.21,ENE,71,2.0,2.0,45,0.00,,,0.00,Wunderground v.1.15,2013-04-22 17:31:00,
2013-04-22 13:36:00,61.0,39.5,30.20,ENE,71,2.0,2.0,45,0.00,,,0.00,Wunderground v.1.15,2013-04-22 17:36:00,
2013-04-22 13:42:00,60.8,38.1,30.20,SSE,157,2.0,6.0,43,0.00,,,0.00,Wunderground v.1.15,2013-04-22 17:42:00,
2013-04-22 13:51:00,60.9,38.2,30.20,WSW,257,2.0,3.0,43,0.00,,,0.00,Wunderground v.1.15,2013-04-22 17:51:00,
2013-04-22 13:56:00,61.0,38.3,30.20,South,169,2.0,4.0,43,0.00,,,0.00,Wunderground v.1.15,2013-04-22 17:56:00,
2013-04-22 14:01:00,61.2,38.5,30.19,SSE,161,2.0,2.0,43,0.00,,,0.00,Wunderground v.1.15,2013-04-22 18:01:00,
2013-04-22 14:06:00,61.2,38.5,30.19,ENE,76,2.0,4.0,43,0.00,,,0.00,Wunderground v.1.15,2013-04-22 18:06:00,
2013-04-22 14:12:00,61.8,38.4,30.19,ESE,105,2.0,3.0,42,0.00,,,0.00,Wunderground v.1.15,2013-04-22 18:12:00,
2013-04-22 14:18:00,62.1,38.7,30.19,ENE,58,2.0,4.0,42,0.00,,,0.00,Wunderground v.1.15,2013-04-22 18:18:00,
2013-04-22 14:24:00,62.3,37.0,30.19,ESE,118,2.0,4.0,39,0.00,,,0.00,Wunderground v.1.15,2013-04-22 18:24:00,
2013-04-22 14:30:00,62.6,37.9,30.18,SSE,153,2.0,2.0,40,0.00,,,0.00,Wunderground v.1.15,2013-04-22 18:30:00,
2013-04-22 14:35:00,62.9,36.9,30.19,SSW,194,2.0,6.0,38,0.00,,,0.00,Wunderground v.1.15,2013-04-22 18:35:00,
2013-04-22 14:40:00,62.8,36.8,30.18,South,181,2.0,2.0,38,0.00,,,0.00,Wunderground v.1.15,2013-04-22 18:40:00,
2013-04-22 14:51:00,62.5,36.5,30.18,ESE,113,2.0,3.0,38,0.00,,,0.00,Wunderground v.1.15,2013-04-22 18:51:00,
2013-04-22 14:57:00,62.5,36.5,30.17,ENE,57,2.0,5.0,38,0.00,,,0.00,Wunderground v.1.15,2013-04-22 18:57:00,
2013-04-22 15:02:00,62.8,36.8,30.17,WSW,240,2.0,3.0,38,0.00,,,0.00,Wunderground v.1.15,2013-04-22 19:02:00,
2013-04-22 15:07:00,62.7,38.0,30.17,SE,132,2.0,3.0,40,0.00,,,0.00,Wunderground v.1.15,2013-04-22 19:07:00,
2013-04-22 15:13:00,63.5,36.7,30.17,East,86,2.0,3.0,37,0.00,,,0.00,Wunderground v.1.15,2013-04-22 19:13:00,
2013-04-22 15:18:00,63.3,37.2,30.16,East,85,2.0,5.0,38,0.00,,,0.00,Wunderground v.1.15,2013-04-22 19:18:00,
2013-04-22 15:24:00,63.2,38.5,30.16,SE,144,2.0,3.0,40,0.00,,,0.00,Wunderground v.1.15,2013-04-22 19:24:00,
2013-04-22 15:30:00,63.3,37.9,30.16,East,92,1.0,1.0,39,0.00,,,0.00,Wunderground v.1.15,2013-04-22 19:30:00,
2013-04-22 15:36:00,63.8,38.4,30.15,SE,136,1.0,4.0,39,0.00,,,0.00,Wunderground v.1.15,2013-04-22 19:36:00,
2013-04-22 15:42:00,63.6,37.5,30.16,East,81,2.0,2.0,38,0.00,,,0.00,Wunderground v.1.15,2013-04-22 19:42:00,
2013-04-22 15:50:00,63.3,37.9,30.15,ENE,72,2.0,2.0,39,0.00,,,0.00,Wunderground v.1.15,2013-04-22 19:50:00,
2013-04-22 15:56:00,63.5,38.7,30.15,SSW,196,2.0,4.0,40,0.00,,,0.00,Wunderground v.1.15,2013-04-22 19:56:00,
2013-04-22 16:01:00,63.4,37.3,30.15,East,86,2.0,4.0,38,0.00,,,0.00,Wunderground v.1.15,2013-04-22 20:01:00,
2013-04-22 16:07:00,63.5,37.4,30.14,SSE,147,2.0,6.0,38,0.00,,,0.00,Wunderground v.1.15,2013-04-22 20:07:00,
2013-04-22 16:12:00,63.1,37.7,30.14,SE,137,2.0,4.0,39,0.00,,,0.00,Wunderground v.1.15,2013-04-22 20:12:00,
2013-04-22 16:18:00,63.1,38.4,30.14,SSE,147,1.0,4.0,40,0.00,,,0.00,Wunderground v.1.15,2013-04-22 20:18:00,
2013-04-22 16:24:00,63.2,38.5,30.13,West,271,1.0,3.0,40,0.00,,,0.00,Wunderground v.1.15,2013-04-22 20:24:00,
2013-04-22 16:29:00,62.8,37.5,30.13,SE,130,2.0,5.0,39,0.00,,,0.00,Wunderground v.1.15,2013-04-22 20:29:00,
2013-04-22 16:35:00,62.7,38.0,30.13,SE,130,2.0,2.0,40,0.00,,,0.00,Wunderground v.1.15,2013-04-22 20:35:00,
2013-04-22 16:41:00,62.6,37.3,30.12,South,188,2.0,5.0,39,0.00,,,0.00,Wunderground v.1.15,2013-04-22 20:41:00,
2013-04-22 16:50:00,62.5,38.5,30.12,SE,130,2.0,2.0,41,0.00,,,0.00,Wunderground v.1.15,2013-04-22 20:50:00,
2013-04-22 16:56:00,62.7,38.0,30.12,East,80,2.0,6.0,40,0.00,,,0.00,Wunderground v.1.15,2013-04-22 20:56:00,
2013-04-22 17:01:00,62.6,38.6,30.12,South,184,2.0,2.0,41,0.00,,,0.00,Wunderground v.1.15,2013-04-22 21:01:00,
2013-04-22 17:07:00,62.6,37.9,30.12,SE,140,2.0,2.0,40,0.00,,,0.00,Wunderground v.1.15,2013-04-22 21:07:00,
2013-04-22 17:13:00,62.5,37.8,30.12,SSW,197,1.0,4.0,40,0.00,,,0.00,Wunderground v.1.15,2013-04-22 21:13:00,
2013-04-22 17:19:00,62.3,38.3,30.12,ESE,121,2.0,7.0,41,0.00,,,0.00,Wunderground v.1.15,2013-04-22 21:19:00,
2013-04-22 17:25:00,62.5,38.5,30.12,SSW,193,1.0,4.0,41,0.00,,,0.00,Wunderground v.1.15,2013-04-22 21:25:00,
2013-04-22 17:30:00,62.4,38.4,30.12,WSW,256,1.0,4.0,41,0.00,,,0.00,Wunderground v.1.15,2013-04-22 21:30:00,
2013-04-22 17:36:00,62.0,38.0,30.12,SW,216,2.0,4.0,41,0.00,,,0.00,Wunderground v.1.15,2013-04-22 21:36:00,
2013-04-22 17:42:00,61.7,37.7,30.11,SSE,163,1.0,2.0,41,0.00,,,0.00,Wunderground v.1.15,2013-04-22 21:42:00,
2013-04-22 17:51:00,61.5,36.9,30.12,SSE,155,1.0,2.0,40,0.00,,,0.00,Wunderground v.1.15,2013-04-22 21:51:00,
2013-04-22 17:56:00,61.2,36.7,30.11,SSW,207,1.0,4.0,40,0.00,,,0.00,Wunderground v.1.15,2013-04-22 21:56:00,
2013-04-22 18:01:00,60.9,37.0,30.11,South,173,2.0,4.0,41,0.00,,,0.00,Wunderground v.1.15,2013-04-22 22:01:00,
2013-04-22 18:07:00,60.7,37.5,30.11,SSE,163,2.0,6.0,42,0.00,,,0.00,Wunderground v.1.15,2013-04-22 22:07:00,
2013-04-22 18:13:00,60.8,37.5,30.11,SE,135,1.0,2.0,42,0.00,,,0.00,Wunderground v.1.15,2013-04-22 22:13:00,
2013-04-22 18:19:00,60.7,37.5,30.11,SSW,196,1.0,2.0,42,0.00,,,0.00,Wunderground v.1.15,2013-04-22 22:19:00,
2013-04-22 18:25:00,60.6,37.4,30.12,SSW,195,0.0,2.0,42,0.00,,,0.00,Wunderground v.1.15,2013-04-22 22:25:00,
2013-04-22 18:31:00,60.5,37.3,30.12,West,268,0.0,1.0,42,0.00,,,0.00,Wunderground v.1.15,2013-04-22 22:31:00,
2013-04-22 18:36:00,60.3,37.7,30.11,ESE,118,1.0,1.0,43,0.00,,,0.00,Wunderground v.1.15,2013-04-22 22:36:00,
2013-04-22 18:41:00,60.0,37.4,30.11,ESE,117,1.0,4.0,43,0.00,,,0.00,Wunderground v.1.15,2013-04-22 22:41:00,
2013-04-22 18:50:00,59.4,37.5,30.11,SSW,206,1.0,1.0,44,0.00,,,0.00,Wunderground v.1.15,2013-04-22 22:50:00,
2013-04-22 18:56:00,59.2,37.3,30.11,SE,132,0.0,5.0,44,0.00,,,0.00,Wunderground v.1.15,2013-04-22 22:56:00,
2013-04-22 19:02:00,59.0,37.7,30.12,SE,132,0.0,0.0,45,0.00,,,0.00,Wunderground v.1.15,2013-04-22 23:02:00,
2013-04-22 19:08:00,58.8,38.1,30.12,West,274,0.0,1.0,46,0.00,,,0.00,Wunderground v.1.15,2013-04-22 23:08:00,
2013-04-22 19:14:00,58.5,37.8,30.13,South,191,0.0,0.0,46,0.00,,,0.00,Wunderground v.1.15,2013-04-22 23:14:00,
2013-04-22 19:20:00,58.2,38.1,30.13,South,191,0.0,0.0,47,0.00,,,0.00,Wunderground v.1.15,2013-04-22 23:20:00,
2013-04-22 19:26:00,57.8,38.2,30.13,South,191,0.0,1.0,48,0.00,,,0.00,Wunderground v.1.15,2013-04-22 23:26:00,
2013-04-22 19:32:00,57.6,38.6,30.13,SSE,154,0.0,0.0,49,0.00,,,0.00,Wunderground v.1.15,2013-04-22 23:32:00,
2013-04-22 19:37:00,57.3,38.3,30.13,SSE,154,0.0,0.0,49,0.00,,,0.00,Wunderground v.1.15,2013-04-22 23:37:00,
2013-04-22 19:43:00,57.0,38.0,30.13,SSE,158,0.0,0.0,49,0.00,,,0.00,Wunderground v.1.15,2013-04-22 23:43:00,
2013-04-22 19:51:00,56.5,38.6,30.13,SSE,158,0.0,0.0,51,0.00,,,0.00,Wunderground v.1.15,2013-04-22 23:51:00,
2013-04-22 19:56:00,56.1,38.7,30.13,SSE,158,0.0,2.0,52,0.00,,,0.00,Wunderground v.1.15,2013-04-22 23:56:00,
2013-04-22 20:01:00,55.6,39.2,30.14,SSE,158,0.0,0.0,54,0.00,,,0.00,Wunderground v.1.15,2013-04-23 00:01:00,
2013-04-22 20:07:00,55.1,39.2,30.14,SSE,159,0.0,0.0,55,0.00,,,0.00,Wunderground v.1.15,2013-04-23 00:07:00,
2013-04-22 20:13:00,54.6,39.7,30.14,SSE,159,0.0,0.0,57,0.00,,,0.00,Wunderground v.1.15,2013-04-23 00:13:00,
2013-04-22 20:19:00,54.2,39.7,30.14,SSW,210,0.0,0.0,58,0.00,,,0.00,Wunderground v.1.15,2013-04-23 00:19:00,
2013-04-22 20:25:00,53.6,39.6,30.15,SSW,210,0.0,0.0,59,0.00,,,0.00,Wunderground v.1.15,2013-04-23 00:25:00,
2013-04-22 20:30:00,53.2,39.7,30.15,SSW,210,0.0,0.0,60,0.00,,,0.00,Wunderground v.1.15,2013-04-23 00:30:00,
2013-04-22 20:35:00,52.8,40.1,30.15,WSW,252,0.0,0.0,62,0.00,,,0.00,Wunderground v.1.15,2013-04-23 00:35:00,
2013-04-22 20:41:00,52.4,39.8,30.15,WSW,252,0.0,0.0,62,0.00,,,0.00,Wunderground v.1.15,2013-04-23 00:41:00,
2013-04-22 20:51:00,51.7,39.9,30.15,WSW,252,0.0,0.0,64,0.00,,,0.00,Wunderground v.1.15,2013-04-23 00:51:00,
2013-04-22 20:56:00,51.4,39.6,30.15,WSW,252,0.0,1.0,64,0.00,,,0.00,Wunderground v.1.15,2013-04-23 00:56:00,
2013-04-22 21:01:00,51.1,39.7,30.16,WSW,252,0.0,0.0,65,0.00,,,0.00,Wunderground v.1.15,2013-04-23 01:01:00,
2013-04-22 21:07:00,50.8,39.5,30.16,WSW,258,0.0,1.0,65,0.00,,,0.00,Wunderground v.1.15,2013-04-23 01:07:00,
2013-04-22 21:12:00,50.5,39.6,30.16,West,269,0.0,0.0,66,0.00,,,0.00,Wunderground v.1.15,2013-04-23 01:12:00,
2013-04-22 21:17:00,50.2,39.7,30.16,West,269,0.0,1.0,67,0.00,,,0.00,Wunderground v.1.15,2013-04-23 01:17:00,
2013-04-22 21:23:00,49.9,39.4,30.16,West,269,0.0,0.0,67,0.00,,,0.00,Wunderground v.1.15,2013-04-23 01:23:00,
2013-04-22 21:28:00,49.7,39.2,30.16,West,269,0.0,0.0,67,0.00,,,0.00,Wunderground v.1.15,2013-04-23 01:28:00,
2013-04-22 21:34:00,49.6,38.7,30.16,West,271,0.0,1.0,66,0.00,,,0.00,Wunderground v.1.15,2013-04-23 01:34:00,
2013-04-22 21:40:00,49.5,37.0,30.17,West,277,0.0,0.0,62,0.00,,,0.00,Wunderground v.1.15,2013-04-23 01:40:00,
2013-04-22 21:45:00,49.7,38.0,30.17,West,277,0.0,1.0,64,0.00,,,0.00,Wunderground v.1.15,2013-04-23 01:45:00,
2013-04-22 21:50:00,49.8,37.3,30.17,West,277,0.0,0.0,62,0.00,,,0.00,Wunderground v.1.15,2013-04-23 01:50:00,
2013-04-22 21:56:00,50.1,37.6,30.17,West,269,0.0,2.0,62,0.00,,,0.00,Wunderground v.1.15,2013-04-23 01:56:00,
2013-04-22 22:01:00,50.4,38.3,30.17,South,180,1.0,5.0,63,0.00,,,0.00,Wunderground v.1.15,2013-04-23 02:01:00,
2013-04-22 22:06:00,50.5,37.5,30.17,NNE,25,1.0,5.0,61,0.00,,,0.00,Wunderground v.1.15,2013-04-23 02:06:00,
2013-04-22 22:12:00,50.4,37.4,30.18,NW,315,1.0,2.0,61,0.00,,,0.00,Wunderground v.1.15,2013-04-23 02:12:00,
2013-04-22 22:18:00,50.3,36.5,30.18,WNW,300,1.0,2.0,59,0.00,,,0.00,Wunderground v.1.15,2013-04-23 02:18:00,
2013-04-22 22:24:00,50.7,37.3,30.18,WNW,297,0.0,2.0,60,0.00,,,0.00,Wunderground v.1.15,2013-04-23 02:24:00,
2013-04-22 22:29:00,50.8,37.0,30.18,WNW,288,0.0,2.0,59,0.00,,,0.00,Wunderground v.1.15,2013-04-23 02:29:00,
2013-04-22 22:35:00,50.9,35.7,30.18,WNW,300,0.0,1.0,56,0.00,,,0.00,Wunderground v.1.15,2013-04-23 02:35:00,
2013-04-22 22:41:00,51.0,35.4,30.19,SW,224,0.0,0.0,55,0.00,,,0.00,Wunderground v.1.15,2013-04-23 02:41:00,
2013-04-22 22:50:00,51.1,35.5,30.19,WSW,252,0.0,2.0,55,0.00,,,0.00,Wunderground v.1.15,2013-04-23 02:50:00,
2013-04-22 22:56:00,51.1,35.0,30.19,WSW,252,0.0,3.0,54,0.00,,,0.00,Wunderground v.1.15,2013-04-23 02:56:00,
2013-04-22 23:01:00,51.0,35.4,30.19,NNW,341,0.0,0.0,55,0.00,,,0.00,Wunderground v.1.15,2013-04-23 03:01:00,
2013-04-22 23:07:00,50.6,36.4,30.19,NW,317,1.0,2.0,58,0.00,,,0.00,Wunderground v.1.15,2013-04-23 03:07:00,
2013-04-22 23:13:00,50.1,36.7,30.20,WNW,287,0.0,2.0,60,0.00,,,0.00,Wunderground v.1.15,2013-04-23 03:13:00,
2013-04-22 23:19:00,49.7,36.8,30.20,WNW,287,0.0,2.0,61,0.00,,,0.00,Wunderground v.1.15,2013-04-23 03:19:00,
2013-04-22 23:25:00,49.2,36.7,30.20,WNW,287,0.0,2.0,62,0.00,,,0.00,Wunderground v.1.15,2013-04-23 03:25:00,
2013-04-22 23:30:00,49.0,37.3,30.20,WNW,287,0.0,0.0,64,0.00,,,0.00,Wunderground v.1.15,2013-04-23 03:30:00,
2013-04-22 23:36:00,48.6,37.4,30.20,WNW,287,0.0,1.0,65,0.00,,,0.00,Wunderground v.1.15,2013-04-23 03:36:00,
2013-04-22 23:42:00,48.3,37.5,30.20,NW,308,0.0,2.0,66,0.00,,,0.00,Wunderground v.1.15,2013-04-23 03:42:00,
2013-04-22 23:50:00,47.8,37.4,30.20,NW,308,0.0,0.0,67,0.00,,,0.00,Wunderground v.1.15,2013-04-23 03:50:00,
2013-04-22 23:56:00,47.7,37.7,30.20,NW,308,0.0,2.0,68,0.00,,,0.00,Wunderground v.1.15,2013-04-23 03:56:00,